Fallon, NV

12:30 PM PST on February 19, 2017 (GMT -0800)
Fallon Naval Air Station

Weather History for KNFL - October, 2014

Change the Weather History Date:

Sunday, October 5, 2014

  Actual Average Record
Temperature  
Mean Temperature 63 °F -  
Max Temperature 82 °F 74 °F 88 °F (1958)
Min Temperature 44 °F 36 °F 24 °F (1969)
Degree Days  
Heating Degree Days 2    
Growing Degree Days 13 (Base 50)    
Moisture  
Dew Point 29 °F    
Average Humidity 35    
Maximum Humidity 65    
Minimum Humidity 11    
Precipitation  
Precipitation 0.00 in - - ()
Sea Level Pressure  
Sea Level Pressure 30.10 in    
Wind  
Wind Speed 4 mph (SSW)    
Max Wind Speed 9 mph    
Max Gust Speed -    
Visibility 10 miles    
Events      
Averages and records for this station are not official NWS values.
T = Trace of Precipitation, MM = Missing Value Source: NWS Daily Summary

Daily Weather History Graph

Daily Weather History Graph

Search for Another Location

Airport or City:

Trip Planner

Search our weather history database for the weather conditions in past years. The results will help you decide how hot, cold, wet, or windy it might be!

Date:

Astronomy

Oct. 05, 2014 Rise Set
Actual Time 6:54 AM PDT 6:30 PM PDT
Civil Twilight 6:28 AM PDT 6:57 PM PDT
Nautical Twilight 5:56 AM PDT 7:28 PM PDT
Astronomical Twilight 5:25 AM PDT 7:59 PM PDT
Moon 4:51 PM PDT (10/5) 3:38 AM PDT (10/5)
Length of Visible Light 12h 29m
Length of Day
11h 35m
Waxing Gibbous, 90% of the Moon is Illuminated
Oct 5
Waxing Gibbous
Oct 8
Full
Oct 15
Last Quarter
Oct 23
New
Oct 30
First Quarter

Hourly Weather History & Observations

Time (PDT) Temp. Windchill Dew Point Humidity Pressure Visibility Wind Dir Wind Speed Gust Speed Precip Events Conditions
12:56 AM 50.0 °F - 32.0 °F 50% 30.11 in 10.0 mi North - - N/A   Clear
1:56 AM 46.0 °F 44.8 °F 30.0 °F 54% 30.11 in 10.0 mi South 3.5 mph - N/A   Clear
2:56 AM 48.9 °F - 30.9 °F 50% 30.11 in 10.0 mi SSW 3.5 mph - N/A   Clear
3:56 AM 45.0 °F 41.2 °F 30.0 °F 56% 30.10 in 10.0 mi SSW 6.9 mph - N/A   Clear
4:56 AM 45.0 °F 42.6 °F 32.0 °F 60% 30.11 in 10.0 mi SSW 4.6 mph - N/A   Clear
5:56 AM 44.1 °F - 33.1 °F 65% 30.12 in 10.0 mi Calm Calm - N/A   Clear
6:56 AM 44.1 °F 42.5 °F 30.9 °F 60% 30.12 in 10.0 mi SSW 3.5 mph - N/A   Clear
7:56 AM 50.0 °F - 33.1 °F 52% 30.13 in 10.0 mi South 4.6 mph - N/A   Clear
8:56 AM 59.0 °F - 32.0 °F 36% 30.14 in 10.0 mi South 3.5 mph - N/A   Clear
9:56 AM 64.9 °F - 30.0 °F 27% 30.14 in 10.0 mi Calm Calm - N/A   Clear
10:56 AM 71.1 °F - 28.9 °F 21% 30.14 in 10.0 mi Calm Calm - N/A   Clear
11:01 AM 70.0 °F - 28.0 °F 21% 30.24 in 10.0 mi Calm Calm - N/A   Partly Cloudy
11:56 AM 73.9 °F - 28.9 °F 19% 30.13 in 10.0 mi Calm Calm - N/A   Partly Cloudy
12:56 PM 78.1 °F - 28.9 °F 17% 30.10 in 10.0 mi NW 5.8 mph - N/A   Partly Cloudy
1:56 PM 80.1 °F - 30.0 °F 16% 30.08 in 10.0 mi NNW 6.9 mph - N/A   Partly Cloudy
2:56 PM 81.0 °F - 27.0 °F 14% 30.06 in 10.0 mi Calm Calm - N/A   Partly Cloudy
3:56 PM 82.9 °F - 24.1 °F 12% 30.05 in 10.0 mi NNE 8.1 mph - N/A   Partly Cloudy
4:56 PM 82.0 °F - 21.9 °F 11% 30.05 in 10.0 mi NNE 9.2 mph - N/A   Partly Cloudy
5:56 PM 80.1 °F - 23.0 °F 12% 30.04 in 10.0 mi NNW 4.6 mph - N/A   Partly Cloudy
6:56 PM 70.0 °F - 27.0 °F 20% 30.04 in 10.0 mi North 4.6 mph - N/A   Clear
7:56 PM 63.0 °F - 27.0 °F 26% 30.04 in 10.0 mi North 5.8 mph - N/A   Clear
8:56 PM 57.0 °F - 28.0 °F 33% 30.05 in 10.0 mi SSE 3.5 mph - N/A   Clear
9:56 PM 53.1 °F - 30.9 °F 43% 30.06 in 10.0 mi South 4.6 mph - N/A   Clear
10:56 PM 50.0 °F - 30.9 °F 48% 30.06 in 10.0 mi SSW 4.6 mph - N/A   Clear
11:56 PM 48.9 °F - 30.0 °F 48% 30.06 in 10.0 mi South 6.9 mph - N/A   Clear